CW5066 Weather Reports


Display with metric or nautical units.
time (UTC)temp
F
wind
direction
speed
MPH
gust
MPH
rain 1hr
in
rain 24hr
in
rain mn
in
humidity
%
barometer
mb
20260507161515 37 293 4.0 7.0 0.00 0.07 0.00 61 1021.4
20260507160515 37 225 2.0 8.0 0.00 0.07 0.00 62 1021.5
20260507155516 37 248 1.0 5.0 0.00 0.07 0.00 62 1022.3
20260507154535 36 270 2.0 6.0 0.00 0.07 0.00 61 1021.9
20260507153518 36 0 4.0 8.0 0.00 0.07 0.00 62 1022.2
20260507152518 37 0 3.0 7.0 0.00 0.07 0.00 61 1023.2
20260507151517 36 0 3.0 6.0 0.00 0.07 0.00 60 1022.7
20260507150537 36 0 7.0 13.0 0.00 0.07 0.00 59 1022.8
20260507145517 36 0 10.0 16.0 0.00 0.07 0.00 61 1023.0
20260507144517 37 0 4.0 10.0 0.00 0.07 0.00 60 1023.0
20260507143537 36 0 10.0 16.0 0.00 0.07 0.00 60 1022.8
20260507142517 37 0 10.0 16.0 0.00 0.07 0.00 61 1022.9
20260507141517 37 0 12.0 20.0 0.00 0.07 0.00 60 1023.0
20260507140517 37 0 8.0 17.0 0.00 0.07 0.00 61 1023.2
20260507135517 36 0 7.0 12.0 0.00 0.07 0.00 61 1024.1
20260507134537 36 0 9.0 15.0 0.00 0.07 0.00 62 1023.5
20260507133517 35 0 11.0 20.0 0.00 0.07 0.00 62 1023.4
20260507132517 34 0 10.0 19.0 0.00 0.07 0.00 64 1024.1
20260507131517 33 0 9.0 17.0 0.00 0.07 0.00 64 1023.6
20260507130517 32 0 5.0 10.0 0.00 0.07 0.00 65 1023.7
20260507125516 32 0 6.0 13.0 0.00 0.07 0.00 66 1023.6
20260507124517 31 0 8.0 14.0 0.00 0.07 0.00 65 1023.6
20260507123537 32 0 9.0 14.0 0.00 0.07 0.00 63 1023.5
20260507122517 32 0 5.0 10.0 0.00 0.07 0.00 63 1024.2
20260507121557 32 0 8.0 16.0 0.00 0.07 0.00 64 1024.1
20260507120517 31 0 6.0 11.0 0.00 0.07 0.00 64 1023.2
20260507115516 32 0 5.0 13.0 0.00 0.07 0.00 63 1023.5
20260507114517 32 0 6.0 11.0 0.00 0.07 0.00 63 1023.6
20260507113517 32 0 6.0 16.0 0.00 0.07 0.00 63 1023.7
20260507112517 32 0 5.0 10.0 0.00 0.07 0.00 61 1023.7
20260507111517 32 0 4.0 13.0 0.00 0.07 0.00 59 1023.7
20260507110516 32 113 4.0 12.0 0.00 0.07 0.00 60 1023.6
20260507105516 32 135 4.0 14.0 0.00 0.07 0.00 59 1023.8
20260507104516 32 113 5.0 14.0 0.00 0.07 0.00 58 1023.8
20260507103516 31 158 1.0 4.0 0.00 0.07 0.00 59 1023.4
20260507102537 30 180 1.0 5.0 0.00 0.07 0.00 62 1022.0
20260507101517 30 180 4.0 7.0 0.00 0.07 0.00 65 1021.9
20260507100516 30 180 2.0 6.0 0.00 0.07 0.00 63 1021.6
20260507095516 30 158 3.0 6.0 0.00 0.07 0.00 63 1021.5
20260507094516 30 135 3.0 8.0 0.00 0.07 0.00 63 1021.9
20260507093516 31 113 2.0 4.0 0.00 0.07 0.00 62 1022.2
20260507092536 31 158 3.0 10.0 0.00 0.07 0.00 61 1022.2
20260507091516 31 135 4.0 12.0 0.00 0.07 0.00 60 1022.2
20260507090516 31 45 5.0 11.0 0.00 0.07 0.00 59 1022.4
20260507085536 31 23 5.0 20.0 0.00 0.07 0.00 57 1022.3
20260507084516 31 45 2.0 7.0 0.00 0.07 0.00 56 1022.7
20260507083516 30 68 5.0 10.0 0.00 0.07 0.00 56 1022.6
20260507082536 31 23 3.0 6.0 0.00 0.07 0.00 55 1021.0
20260507081536 30 0 3.0 7.0 0.00 0.07 0.00 55 1021.2
20260507080516 30 0 4.0 10.0 0.00 0.07 0.00 54 1021.3
20260507075516 30 0 6.0 12.0 0.00 0.07 0.00 52 1021.9
20260507074516 30 0 12.0 19.0 0.00 0.07 0.00 52 1021.2
20260507073516 29 0 9.0 16.0 0.00 0.07 0.00 53 1021.1
20260507072516 28 0 5.0 10.0 0.00 0.07 0.00 54 1021.1
20260507071516 28 0 8.0 13.0 0.00 0.07 0.00 56 1021.1
20260507070516 28 0 12.0 25.0 0.00 0.07 0.00 56 1020.9
20260507065536 28 0 12.0 24.0 0.00 0.07 0.00 57 1021.0
20260507064516 27 0 10.0 19.0 0.00 0.07 0.00 59 1021.2
20260507063516 27 0 14.0 21.0 0.00 0.07 0.00 61 1021.1
20260507062516 27 0 11.0 28.0 0.00 0.07 0.00 61 1021.2
20260507061515 27 0 14.0 24.0 0.00 0.07 0.00 63 1021.2
20260507060515 27 0 7.0 18.0 0.00 0.07 0.00 62 1021.5
20260507055517 26 0 5.0 11.0 0.00 0.07 0.07 63 1020.2
20260507054536 26 0 6.0 14.0 0.00 0.07 0.07 63 1020.2
20260507053516 27 0 12.0 20.0 0.00 0.07 0.07 61 1020.6
20260507052516 27 0 13.0 22.0 0.00 0.07 0.07 63 1019.6
20260507051517 27 0 12.0 20.0 0.00 0.07 0.07 62 1020.4
20260507050516 26 0 12.0 20.0 0.00 0.07 0.07 65 1019.5
20260507045516 26 0 11.0 20.0 0.00 0.07 0.07 64 1019.5
20260507044536 26 0 10.0 18.0 0.00 0.07 0.07 63 1019.3
20260507043516 26 0 13.0 20.0 0.00 0.07 0.07 62 1019.2
20260507042516 26 0 10.0 17.0 0.00 0.07 0.07 64 1018.6
20260507041516 26 0 11.0 21.0 0.00 0.07 0.07 61 1018.4
20260507040536 26 0 10.0 24.0 0.00 0.07 0.07 63 1018.2
20260507035516 26 0 10.0 22.0 0.00 0.07 0.07 63 1018.3
20260507034536 27 0 10.0 21.0 0.00 0.07 0.07 64 1018.2
20260507033516 27 0 8.0 18.0 0.00 0.07 0.07 63 1018.2
20260507032636 27 0 8.0 18.0 0.00 0.07 0.07 64 1018.2
20260507031516 27 0 9.0 20.0 0.00 0.07 0.07 65 1018.1
20260507030516 27 0 8.0 19.0 0.00 0.07 0.07 63 1017.7
20260507025516 27 0 10.0 30.0 0.00 0.07 0.07 63 1017.8
20260507024516 28 0 10.0 18.0 0.00 0.07 0.07 63 1018.3
20260507023536 28 0 11.0 28.0 0.00 0.07 0.07 64 1018.1
20260507022516 28 0 13.0 28.0 0.00 0.07 0.07 63 1017.4
20260507021536 28 0 12.0 29.0 0.00 0.07 0.07 64 1017.3
20260507020515 28 0 8.0 19.0 0.00 0.07 0.07 63 1017.0
20260507015556 28 0 9.0 20.0 0.00 0.07 0.07 63 1017.0
20260507014516 29 0 6.0 17.0 0.00 0.07 0.07 65 1017.1
20260507013536 29 0 5.0 12.0 0.01 0.07 0.07 63 1017.2
20260507012515 31 0 9.0 24.0 0.01 0.07 0.07 60 1018.0
20260507011516 31 0 10.0 30.0 0.01 0.07 0.07 60 1017.8
20260507010555 32 0 9.0 27.0 0.01 0.07 0.07 59 1018.6
20260507005516 33 0 5.0 15.0 0.01 0.07 0.07 59 1018.9
20260507004516 33 0 5.0 15.0 0.02 0.07 0.07 55 1018.8
20260507003516 33 0 7.0 14.0 0.01 0.06 0.06 58 1018.7
20260507002535 33 0 5.0 16.0 0.02 0.06 0.06 56 1018.5
20260507001516 34 45 4.0 10.0 0.02 0.06 0.06 61 1019.1
20260507000515 34 0 4.0 12.0 0.02 0.06 0.06 59 1019.1
20260506235515 34 45 6.0 14.0 0.02 0.06 0.06 59 1019.1
20260506234515 33 0 4.0 15.0 0.02 0.05 0.05 61 1018.4
20260506233515 34 0 4.0 13.0 0.02 0.05 0.05 62 1019.1
20260506232515 33 0 5.0 13.0 0.01 0.04 0.04 64 1018.3
20260506231515 33 0 4.0 11.0 0.02 0.04 0.04 60 1018.1
20260506230517 33 0 3.0 9.0 0.03 0.04 0.04 66 1018.2
20260506225517 33 0 5.0 23.0 0.03 0.04 0.04 65 1018.3
20260506224517 33 45 5.0 12.0 0.02 0.03 0.03 63 1018.1
20260506223517 32 0 5.0 12.0 0.02 0.03 0.03 65 1018.5
20260506222517 32 0 5.0 13.0 0.02 0.03 0.03 65 1018.3
20260506221517 31 23 2.0 4.0 0.01 0.02 0.02 73 1017.8
20260506220537 30 0 4.0 10.0 0.00 0.01 0.01 82 1018.1
20260506215537 29 0 3.0 9.0 0.00 0.01 0.01 81 1017.4
20260506214517 30 293 2.0 5.0 0.00 0.01 0.01 81 1018.1
20260506213517 29 315 1.0 4.0 0.00 0.02 0.01 80 1017.5
20260506212517 29 315 1.0 3.0 0.00 0.02 0.01 82 1017.5
20260506211517 28 315 2.0 4.0 0.00 0.02 0.01 82 1017.3
20260506210517 28 293 4.0 9.0 0.00 0.03 0.01 85 1017.4
20260506205517 28 338 1.0 4.0 0.00 0.03 0.01 82 1017.5
20260506204517 26 0 2.0 6.0 0.00 0.03 0.01 82 1016.8
20260506203517 28 315 2.0 7.0 0.00 0.03 0.01 83 1017.5
20260506202517 27 338 3.0 9.0 0.00 0.04 0.01 86 1017.4
20260506201517 26 0 1.0 3.0 0.00 0.04 0.01 86 1017.4
20260506200517 25 0 1.0 4.0 0.00 0.04 0.01 86 1016.6
20260506195516 26 338 2.0 5.0 0.00 0.05 0.01 85 1016.5
20260506194517 27 0.0 3.0 0.00 0.05 0.01 83 1017.1
20260506193537 26 270 1.0 3.0 0.00 0.05 0.01 85 1017.2
20260506192537 26 0.0 3.0 0.01 0.05 0.01 85 1017.2
20260506191517 27 0.0 2.0 0.01 0.05 0.01 79 1017.1
20260506190516 27 0.0 2.0 0.01 0.06 0.01 79 1017.1
20260506185517 26 0.0 1.0 0.01 0.06 0.01 84 1017.1
20260506184516 25 0.0 2.0 0.01 0.06 0.01 81 1016.3
20260506183516 27 0.0 0.0 0.01 0.06 0.01 78 1017.1
20260506182516 28 0.0 3.0 0.00 0.06 0.00 80 1017.1
20260506181516 28 0.0 2.0 0.00 0.06 0.00 75 1017.1
20260506180537 28 0.0 2.0 0.00 0.07 0.00 75 1018.0
20260506175516 28 0.0 1.0 0.00 0.07 0.00 76 1018.0
20260506174516 27 0.0 2.0 0.00 0.07 0.00 80 1017.3
20260506173516 25 0.0 3.0 0.00 0.07 0.00 79 1016.5
20260506172516 24 0.0 3.0 0.00 0.07 0.00 83 1016.5
20260506171516 23 135 1.0 4.0 0.00 0.08 0.00 81 1015.6
20260506170616 24 135 1.0 4.0 0.00 0.09 0.00 84 1016.1
20260506165536 23 135 1.0 6.0 0.00 0.09 0.00 86 1015.3
20260506164516 22 135 1.0 3.0 0.00 0.09 0.00 85 1015.2
20260506163516 21 135 2.0 7.0 0.00 0.09 0.00 84 1014.2
20260506162516 22 113 2.0 8.0 0.00 0.09 0.00 85 1014.8